Location: Burbank
(38.7788°N, 114.0429°W)
Time: 23:22:04
(UTC+00:00)

S-56A Canister/Altair - Pass Details

Date: 11 May 2026
Orbit: 633 x 2484 km, 38.9° (Epoch: 1 June)

Event Time Altitude Azimuth Distance (km) Brightness Sun altitude
Rises 10:43:33 0° 281° (W) 3,554 - -17.8°
Reaches altitude 10° 10:45:55 10° 273° (W) 2,798 - -17.5°
Exits shadow 10:47:19 17° 266° (W) 2,409 9.6 -17.3°
Maximum altitude 10:52:14 40° 206° (SSW) 1,849 9.0 -16.5°
Drops below altitude 10° 11:01:24 10° 143° (SE) 4,066 11.2 -15.2°
Sets 11:05:36 0° 137° (SE) 5,355 11.9 -14.5°
